Location: ??? ????
(30.6670°N, 60.5931°E)
Time: 21:14:17
(UTC+00:00)

Daily predictions for brighter satellites

Satellite Brightness Start Highest point End
(mag) Time Altitude Azimuth Time Altitude Azimuth Time Altitude Azimuth
Centaur D AC-29 4.1 13:25:14 10° SW 13:31:44 52° SSE 22:55:06 10° SE
CZ-2C R/B 4.4 14:11:59 10° ENE 14:14:06 12° E 14:16:12 10° ESE
Meteor 1-21 4.2 14:11:11 10° N 14:16:44 64° E 14:22:16 10° SSE
Cosmos 2151 Rocket 4.4 14:15:57 10° SSE 14:19:50 30° E 14:23:45 10° NNE
H-2A R/B 3.0 14:24:21 10° SE 14:28:23 25° ENE 14:32:29 10° NNE
Cosmos 1072 Rocket 4.5 14:22:58 10° S 14:29:06 68° E 14:35:23 10° NNE
Milstar 3 Cent rocket 3.1 14:19:47 10° WSW 14:29:57 58° S 14:34:58 13° E
Cosmos 1975 Rocket 2.9 14:25:58 10° N 14:30:18 82° E 14:34:36 10° S
NOSS 3-4 (A) 3.6 14:27:02 10° S 14:32:35 46° ESE 14:38:17 10° NE
NOSS 3-4 (C) 3.6 14:27:09 10° S 14:32:42 46° ESE 14:38:23 10° NE
Cosmos 1844 Rocket 2.7 14:29:52 10° SSW 14:35:25 87° WNW 14:41:01 10° NNE
Cosmos 2034 Rocket 4.2 14:30:34 10° SSE 14:36:37 48° E 14:42:40 10° NNE
Cosmos 2278 Rocket 3.6 14:36:28 10° SE 14:39:25 14° E 14:39:29 14° E
Cosmos 1844 3.7 14:36:40 10° SSW 14:42:22 85° ESE 14:48:03 10° NNE
Meteor 1-12 Rocket 4.4 14:37:57 10° S 14:43:53 87° W 14:49:44 10° N
Cosmos 1939 Rocket 4.0 14:41:42 10° S 14:45:40 47° W 14:49:41 10° NNW
USA 116 4.3 14:46:45 10° N 14:50:38 67° WNW 14:55:02 10° SSW
Shenzhou-11 Module 4.1 14:51:26 10° NW 14:52:12 11° NNW 14:52:58 10° N
ATLAS 2AS CENTAUR R/B 3.0 14:46:55 10° SSW 14:54:37 66° ESE 15:02:30 10° NE
CENTAUR R/B 4.0 14:48:25 10° N 14:55:43 32° NE 15:00:19 21° E
Cosmos 1707 2.7 14:55:30 10° N 14:59:19 80° W 15:03:08 10° S
CZ-2C R/B 0.9 14:57:12 10° WNW 15:00:58 77° NNE 15:02:15 37° E
Cosmos 1300 Rocket 4.4 14:56:52 10° SSW 15:01:08 53° W 15:05:28 10° N
CSL-04 Debris 4.1 14:56:44 10° SSE 15:02:06 76° ENE 15:07:29 10° N
Centaur D AC-25 4.3 14:57:02 10° WSW 15:02:34 74° S 15:20:36 21° E
Centaur D AC-25 4.3 14:57:02 10° WSW 15:02:34 74° S 15:20:35 21° E
ATLAS 5 CENTAUR R/B 3.5 14:59:28 10° NNW 15:03:46 88° ENE 15:21:01 10° SSE
Okean 1 Rocket 3.4 14:59:50 10° SSE 15:04:04 44° E 15:08:19 10° NNE
CSL-04 Rocket 3.6 14:58:51 10° SSE 15:04:13 75° ENE 15:09:42 10° N
DELTA 2 R/B (1) 4.3 14:59:44 10° WNW 15:05:02 46° SW 15:09:05 17° SSE
YAOGAN 1 3.7 15:11:47 10° S 15:15:54 44° W 15:20:03 10° NNW
Longmarch 3A Rocket 1.8 15:15:07 10° WSW 15:17:10 46° S 15:17:23 45° SSE
Cosmos 1766 3.2 15:18:39 55° ESE 15:18:49 55° E 15:22:40 10° NNE
GOES 2 Rocket 3.0 15:15:13 10° W 15:19:26 64° S 15:20:17 50° SE
Cosmos 2285 Rocket 4.4 15:16:58 10° SSW 15:23:11 66° WNW 15:29:30 10° N
Gbstr 26 Del rocket 4.3 15:18:14 10° SSW 15:24:19 49° SE 15:27:24 31° ENE
USA 238 DEB 3.9 15:17:12 10° NNW 15:24:30 64° ENE 15:28:15 31° SE
USA 238 3.9 15:17:19 10° NNW 15:24:37 64° ENE 15:28:19 32° SE
Cosmos 1025 Rocket 3.6 15:21:01 10° NNW 15:25:21 60° W 15:29:40 10° S
CZ-2C R/B 3.8 15:22:35 10° S 15:27:40 54° W 15:33:04 10° NNW
Cosmos 1092 Rocket 4.0 15:27:14 10° N 15:33:17 54° E 15:34:52 43° SE
Cosmos 2026 Rocket 4.4 15:27:21 10° NNE 15:33:05 40° ENE 15:33:05 40° ENE
Cosmos 1536 Rocket 3.9 15:30:12 10° NNW 15:34:38 66° W 15:37:59 17° S
CZ-4 R/B 4.2 15:32:46 10° SW 15:35:50 20° W 15:38:54 10° NW
ARGOS 3.2 15:38:25 18° S 15:42:22 74° WSW 15:47:44 10° NNW
MOS 1 4.3 15:47:36 59° ENE 15:47:36 59° ENE 15:52:57 10° N
Intelsat 5-1 Rocket 4.2 15:31:16 10° WSW 15:48:42 44° S 15:50:42 39° SE
NOSS 3-2 (A) 4.2 15:41:15 10° NNW 15:49:17 82° WSW 15:53:57 31° SSE
Cosmos 1674 3.8 15:47:50 10° NNW 15:50:34 41° NW 15:50:34 41° NW
CZ-2C R/B 3.0 15:49:09 10° N 15:54:42 67° WNW 16:00:15 10° SSW
USA 234 3.1 16:03:19 66° ENE 16:04:18 81° SE 16:10:51 10° SW
Ariane Rocket 3.4 16:07:41 61° NW 16:07:41 61° NW 16:11:58 10° NNW
H-2A R/B 3.9 16:03:31 10° SSW 16:07:38 27° W 16:11:52 10° NW
Cosmos 494 Rocket 4.4 16:04:35 10° NNW 16:09:44 58° WSW 16:09:44 58° WSW
Cosmos 2278 Rocket 3.0 16:17:23 10° SW 16:28:25 10° N 16:28:27 10° N
NOSS 3-2 (C) 4.2 16:19:26 10° NNW 16:27:27 74° WSW 16:28:39 65° SSW
CENTAUR R/B 3.5 16:38:32 10° NW 16:46:54 60° WSW 16:47:33 59° SW
ATLAS 3B R/B 4.1 16:51:57 10° NNW 16:55:19 30° N 16:55:19 30° N
Milstar 3 Cent rocket 4.5 17:02:02 10° W 17:03:48 19° W 17:03:48 19° W
Cosmos 2360 Rocket 3.1 23:09:33 43° E 23:09:33 43° E 23:14:28 10° NE
Cosmos 1605 Rocket 4.5 23:03:00 10° N 23:08:16 57° NE 23:08:16 57° NE
H-2A R/B 4.1 23:15:36 10° SE 23:19:15 27° ENE 23:22:58 10° NNE
Cosmos 2322 Rocket 3.2 23:30:38 37° N 23:30:38 37° N 23:34:10 10° N
Cosmos 2263 Rocket 3.7 23:33:32 24° SSE 23:33:32 24° SSE 23:35:37 10° SSE
CZ-2C R/B 3.4 23:25:45 10° NNE 23:30:43 46° E 23:32:29 33° SSE
BREEZE-M DEB (TANK) 4.4 23:39:26 41° NW 23:39:52 42° NW 23:44:05 10° NNE
Cosmos 1727 Rocket 3.8 23:39:50 74° W 23:39:53 74° W 23:46:13 10° N
Meteor 1-27 Rocket 3.7 23:40:05 78° SSW 23:40:31 87° W 23:46:28 10° N
SL-16 R/B 3.6 23:42:52 26° NNW 23:42:52 26° NNW 23:45:47 10° N
Meteor 1-11 Rocket 4.0 23:35:32 10° N 23:41:11 65° E 23:46:41 10° SSE
Cosmos 1898 Rocket 3.8 23:35:59 10° N 23:41:14 67° ENE 23:46:29 10° SSE
Cosmos 2237 4.1 23:49:35 68° WNW 23:49:35 68° WNW 23:55:14 10° NNE
Hubble Space Telescope 2.7 23:53:45 20° SSE 23:53:45 20° SSE 23:56:34 10° ESE
